Copper Mountain, CO

8:04 AM MDT on October 21, 2017 (GMT -0600)
Copper Mountain

Weather History for KCCU - August, 2013

Change the Weather History Date:

Wednesday, August 7, 2013

  Actual Average Record
Temperature  
Mean Temperature 48 °F -  
Max Temperature 53 °F - 69 °F (2012)
Min Temperature 44 °F - 39 °F (2002)
Degree Days  
Heating Degree Days 16    
Month to date heating degree days  
Cooling Degree Days 0    
Month to date cooling degree days  
Moisture  
Dew Point 34 °F    
Average Humidity 59    
Maximum Humidity 76    
Minimum Humidity 44    
Precipitation  
Precipitation 0.19 in - 0.63 in (2017)
Sea Level Pressure  
Sea Level Pressure 30.56 in    
Wind  
Wind Speed 6 mph (WSW)    
Max Wind Speed 15 mph    
Max Gust Speed 23 mph    
Visibility 10 miles    
Events Rain , Thunderstorm    
T = Trace of Precipitation, MM = Missing Value Source: NWS Daily Summary

Daily Weather History Graph

Daily Weather History Graph

Search for Another Location

Airport or City:

Trip Planner

Search our weather history database for the weather conditions in past years. The results will help you decide how hot, cold, wet, or windy it might be!

Date:

Astronomy

Aug. 07, 2013 Rise Set
Actual Time 6:10 AM MDT 8:09 PM MDT
Civil Twilight 5:40 AM MDT 8:39 PM MDT
Nautical Twilight 5:04 AM MDT 9:15 PM MDT
Astronomical Twilight 4:25 AM MDT 9:53 PM MDT
Moon 7:00 AM MDT (8/7) 8:19 PM MDT (8/7)
Length of Visible Light 14h 58m
Length of Day
13h 59m
New Moon, 1% of the Moon is Illuminated
Aug 7
New Moon
Aug 14
First Quarter
Aug 20
Full
Aug 28
Last Quarter
Sep 5
New

Hourly Weather History & Observations

Time (MDT) Temp. Windchill Dew Point Humidity Pressure Visibility Wind Dir Wind Speed Gust Speed Precip Events Conditions
12:15 AM 51.8 °F - 30.2 °F 44% 30.59 in 10.0 mi West 4.6 mph - N/A   Overcast
12:35 AM 51.8 °F - 32.0 °F 47% 30.58 in 10.0 mi West 5.8 mph - N/A   Overcast
12:55 AM 51.8 °F - 32.0 °F 47% 30.58 in 10.0 mi WNW 4.6 mph - N/A   Overcast
1:15 AM 53.6 °F - 32.0 °F 44% 30.58 in 10.0 mi SSE 5.8 mph - N/A   Overcast
1:35 AM 53.6 °F - 32.0 °F 44% 30.57 in 10.0 mi South 5.8 mph - N/A   Overcast
1:55 AM 51.8 °F - 30.2 °F 44% 30.57 in 10.0 mi WNW 4.6 mph - N/A   Overcast
2:15 AM 51.8 °F - 30.2 °F 44% 30.56 in 10.0 mi West 4.6 mph - N/A   Scattered Clouds
2:35 AM 50.0 °F - 30.2 °F 47% 30.55 in 10.0 mi WNW 4.6 mph - N/A   Scattered Clouds
2:55 AM 51.8 °F - 32.0 °F 47% 30.55 in 10.0 mi West 5.8 mph - N/A   Scattered Clouds
3:15 AM 51.8 °F - 32.0 °F 47% 30.55 in 10.0 mi East 3.5 mph - N/A   Mostly Cloudy
3:35 AM 51.8 °F - 32.0 °F 47% 30.54 in 10.0 mi SSE 6.9 mph - N/A   Overcast
3:55 AM 50.0 °F - 32.0 °F 50% 30.55 in 10.0 mi SSE 5.8 mph - N/A   Overcast
4:15 AM 51.8 °F - 32.0 °F 47% 30.55 in 10.0 mi WNW 3.5 mph - N/A   Overcast
4:35 AM 50.0 °F - 32.0 °F 50% 30.54 in 10.0 mi SSE 5.8 mph - N/A   Overcast
4:55 AM 50.0 °F - 32.0 °F 50% 30.54 in 10.0 mi SE 3.5 mph - N/A   Overcast
5:15 AM 46.4 °F 45.2 °F 32.0 °F 57% 30.54 in 10.0 mi West 3.5 mph - N/A   Overcast
5:35 AM 48.2 °F - 32.0 °F 54% 30.54 in 10.0 mi South 6.9 mph - N/A   Overcast
5:55 AM 48.2 °F - 32.0 °F 54% 30.55 in 10.0 mi South 4.6 mph - N/A   Overcast
6:15 AM 46.4 °F 42.9 °F 33.8 °F 62% 30.56 in 10.0 mi SSE 6.9 mph - N/A   Drizzle
6:35 AM 46.4 °F 41.5 °F 35.6 °F 66% 30.56 in 10.0 mi South 10.4 mph - N/A   Drizzle
6:55 AM 46.4 °F 42.9 °F 37.4 °F 71% 30.56 in 10.0 mi ESE 6.9 mph - 0.01 in   Drizzle
7:15 AM 46.4 °F 41.9 °F 35.6 °F 66% 30.55 in 10.0 mi SSE 9.2 mph - 0.01 in Rain Light Rain
7:35 AM 46.4 °F 42.4 °F 37.4 °F 71% 30.56 in 10.0 mi SE 8.1 mph - 0.01 in Rain Light Rain
7:55 AM 46.4 °F 42.9 °F 37.4 °F 71% 30.56 in 10.0 mi ESE 6.9 mph - 0.01 in   Light Drizzle
8:15 AM 46.4 °F 42.9 °F 35.6 °F 66% 30.56 in 10.0 mi SSE 6.9 mph - N/A   Overcast
8:35 AM 46.4 °F 42.4 °F 35.6 °F 66% 30.56 in 10.0 mi East 8.1 mph - N/A   Overcast
8:55 AM 46.4 °F 42.9 °F 33.8 °F 62% 30.57 in 10.0 mi East 6.9 mph 18.4 mph N/A   Overcast
9:15 AM 44.6 °F 38.8 °F 35.6 °F 71% 30.58 in 10.0 mi ENE 11.5 mph - 0.01 in Rain Light Rain
9:35 AM 44.6 °F 38.4 °F 35.6 °F 71% 30.59 in 10.0 mi ENE 12.7 mph 18.4 mph 0.02 in Rain Rain
9:55 AM 44.6 °F 38.8 °F 37.4 °F 76% 30.59 in 3.0 mi SSE 11.5 mph - 0.02 in   Drizzle
10:15 AM 44.6 °F 39.2 °F 37.4 °F 76% 30.59 in 10.0 mi SSE 10.4 mph - N/A   Light Drizzle
10:35 AM 44.6 °F 42.2 °F 35.6 °F 71% 30.60 in 10.0 mi NNW 4.6 mph - 0.01 in Rain Light Rain
10:55 AM 44.6 °F 40.2 °F 35.6 °F 71% 30.60 in 7.0 mi North 8.1 mph - 0.03 in Rain Light Rain
11:15 AM 44.6 °F 42.2 °F 35.6 °F 71% 30.59 in 5.0 mi WNW 4.6 mph - 0.02 in Rain Rain
11:35 AM 44.6 °F 41.4 °F 35.6 °F 71% 30.59 in 10.0 mi WNW 5.8 mph 23.0 mph 0.04 in Rain Light Rain
11:55 AM 44.6 °F 41.4 °F 35.6 °F 71% 30.59 in 7.0 mi NW 5.8 mph - 0.05 in Rain Light Rain
12:15 PM 44.6 °F 42.2 °F 35.6 °F 71% 30.59 in 10.0 mi WSW 4.6 mph - N/A Thunderstorm Drizzle
12:35 PM 44.6 °F 41.4 °F 35.6 °F 71% 30.60 in 7.0 mi SSW 5.8 mph - 0.02 in Rain Light Rain
12:55 PM 44.6 °F 40.7 °F 35.6 °F 71% 30.60 in 5.0 mi West 6.9 mph - 0.04 in Rain Light Rain
1:15 PM 44.6 °F 40.2 °F 35.6 °F 71% 30.59 in 7.0 mi WNW 8.1 mph - 0.01 in Rain Light Rain
1:35 PM 44.6 °F 38.8 °F 35.6 °F 71% 30.59 in 7.0 mi West 11.5 mph 18.4 mph 0.03 in Rain , Thunderstorm Light Thunderstorms and Rain
1:55 PM 44.6 °F 38.8 °F 37.4 °F 76% 30.59 in 10.0 mi WNW 11.5 mph 17.3 mph 0.03 in Rain Light Rain
2:15 PM 44.6 °F 41.4 °F 35.6 °F 71% 30.59 in 10.0 mi West 5.8 mph - N/A   Overcast
2:35 PM 44.6 °F 40.2 °F 35.6 °F 71% 30.58 in 10.0 mi West 8.1 mph - N/A   Overcast
2:55 PM 50.0 °F - 39.2 °F 66% 30.57 in 10.0 mi WNW 5.8 mph - N/A   Overcast
3:15 PM 53.6 °F - 39.2 °F 58% 30.56 in 10.0 mi West 6.9 mph - N/A   Overcast
3:35 PM 51.8 °F - 37.4 °F 58% 30.55 in 10.0 mi West 10.4 mph 16.1 mph N/A   Mostly Cloudy
3:55 PM 53.6 °F - 39.2 °F 58% 30.55 in 10.0 mi West 5.8 mph - N/A   Mostly Cloudy
4:15 PM 53.6 °F - 39.2 °F 58% 30.54 in 10.0 mi WNW 4.6 mph - N/A   Mostly Cloudy
4:35 PM 53.6 °F - 37.4 °F 54% 30.54 in 10.0 mi WSW 3.5 mph - N/A   Overcast
4:55 PM 53.6 °F - 37.4 °F 54% 30.53 in 10.0 mi East 6.9 mph - N/A   Overcast
5:15 PM 53.6 °F - 35.6 °F 51% 30.53 in 10.0 mi NNW 3.5 mph - N/A   Overcast
5:35 PM 53.6 °F - 35.6 °F 51% 30.54 in 10.0 mi NW 4.6 mph - N/A   Overcast
5:51 PM 53.6 °F - 35.6 °F 51% 30.54 in 10.0 mi WNW 5.8 mph - N/A   Mostly Cloudy
7:15 PM 53.6 °F - 35.6 °F 51% 30.53 in 10.0 mi West 11.5 mph - N/A   Mostly Cloudy
7:35 PM 51.8 °F - 33.8 °F 50% 30.53 in 10.0 mi West 13.8 mph - N/A   Scattered Clouds
7:55 PM 51.8 °F - 33.8 °F 50% 30.52 in 10.0 mi West 12.7 mph - N/A   Mostly Cloudy
8:15 PM 50.0 °F - 33.8 °F 54% 30.52 in 10.0 mi West 15.0 mph - N/A   Mostly Cloudy
8:35 PM 48.2 °F - 32.0 °F 54% 30.52 in 10.0 mi West 10.4 mph - N/A   Scattered Clouds
8:55 PM 50.0 °F - 32.0 °F 50% 30.52 in 10.0 mi West 9.2 mph - N/A   Scattered Clouds
9:15 PM 50.0 °F - 32.0 °F 50% 30.53 in 10.0 mi West 10.4 mph - N/A   Scattered Clouds
9:35 PM 48.2 °F - 32.0 °F 54% 30.54 in 10.0 mi West 15.0 mph - N/A   Clear
9:55 PM 46.4 °F 42.9 °F 32.0 °F 57% 30.54 in 10.0 mi West 6.9 mph - N/A   Clear
10:15 PM 46.4 °F 42.4 °F 33.8 °F 62% 30.54 in 10.0 mi South 8.1 mph - N/A   Clear
10:35 PM 46.4 °F 42.9 °F 33.8 °F 62% 30.53 in 10.0 mi West 6.9 mph - N/A   Scattered Clouds
10:55 PM 46.4 °F 45.2 °F 32.0 °F 57% 30.53 in 10.0 mi WSW 3.5 mph - N/A   Clear
11:15 PM 46.4 °F 43.5 °F 33.8 °F 62% 30.52 in 10.0 mi South 5.8 mph - N/A   Clear
11:35 PM 46.4 °F 43.5 °F 32.0 °F 57% 30.52 in 10.0 mi South 5.8 mph - N/A   Clear
11:55 PM 50.0 °F - 30.2 °F 47% 30.52 in 10.0 mi West 6.9 mph - N/A   Clear